448  
ASUS43 KGRB 210811  
RWRGRB  
 
NORTH-CENTRAL AND NORTHEAST WISCONSIN REGIONAL WEATHER ROUNDUP  
NATIONAL WEATHER SERVICE GREEN BAY WI  
300 AM CDT THU OCT 21 2021  
 
WIZ005-009-010>012-018-019-210900-  
NORTH CENTRAL WISCONSIN  
 
CITY SKY/WX TMP DP RH WIND PRES REMARKS
 
IRONWOOD RAIN 39 38 96 NE3 29.94F  
MANITOWISH WTR DRIZZLE 39 39 100 NE8G16 29.89S  
ARBOR VITAE DRIZZLE 42 30 63 NE9G17 29.87S  
EAGLE RIVER HVY RAIN 41 41 100 NE9 29.87S  
LAND O LAKES DRIZZLE 40 40 100 N12 29.90F  
RHINELANDER LGT RAIN 43 41 93 NE8G17 29.85S FOG  
PHILLIPS CLOUDY 42 42 100 NE13G18 29.86R  
ANTIGO CLOUDY 44 44 100 NE13 29.81F FOG  
TOMAHAWK N/A 43 42 98 N6 29.84S  
MERRILL DRIZZLE 46 46 100 NE7 29.81R  

 
 
WIZ013-073-210900-  
NORTHEAST WISCONSIN  
 
CITY SKY/WX TMP DP RH WIND PRES REMARKS
 
IRON MOUNTAIN LGT RAIN 46 43 89 N7 29.85F FOG  
MARINETTE LGT RAIN 47 47 100 NE12 29.81F FOG  
OCONTO CLOUDY 48 48 100 N9 29.79F  

 
 
WIZ017-030-035>037-045-210900-  
CENTRAL WISCONSIN  
 
CITY SKY/WX TMP DP RH WIND PRES REMARKS
 
MEDFORD CLOUDY 45 45 100 NE13 29.80S  
WAUSAU CLOUDY 50 47 89 N5 29.79S FOG  
MOSINEE CLOUDY 46 45 93 NE10 29.79F FOG  
MARSHFIELD CLOUDY 50 48 93 E15 29.78S  
WISC RAPIDS LGT RAIN 52 50 93 E12 29.77F FOG  
STEVENS POINT CLOUDY 47 47 100 NE6 29.78F  
WAUPACA CLOUDY 54 52 94 N6 29.77F  
SHAWANO CLOUDY 49 49 100 NE10 29.79F  
CLINTONVILLE NOT AVBL  
WAUTOMA CLOUDY 55 54 96 NE6 29.75F FOG  

 
 
WIZ038-039-048-051-210900-  
FOX VALLEY  
 
CITY SKY/WX TMP DP RH WIND PRES REMARKS
 
NWS GREEN BAY CLOUDY 55 54 96 NE16G24 29.77F  
APPLETON FOG 54 54 100 N8 29.75F VSB 1  
OSHKOSH CLOUDY 59 59 100 E3 29.74F FOG  
FOND DU LAC MOCLDY 58 53 84 S3 29.74F HAZE  

 
 
WIZ022-050-052-210900-  
EAST CENTRAL WISCONSIN  
 
CITY SKY/WX TMP DP RH WIND PRES REMARKS
 
EPHRAIM CLOUDY 49 48 98 NE8G17 29.79F FOG  
WASHINGTON ISL CLOUDY 48 48 100 NE9 29.82S  
STURGEON BAY LGT RAIN 53 53 100 N10 29.79F  
MANITOWOC CLOUDY 59 59 100 CALM 29.75F  
SHEBOYGAN FOG 57 57 100 CALM 29.74F VSB 1/4  

 
 
LMZ563-521-522-541>543-210900-  
LAKESHORE  
 
STATION/POSITION TIME TEMP WIND PRES VSBY WAVE
 
AIR SEA DIR/SP/G HT/PER  
(UTC) (F) (DEG/KT/KT) (MB) (MI) (FT/S)  
SHEBOYGAN LKSHOR 0800 60 250/ 1/ 1 N/A  
KEWAUNEE LKSHORE 0730 59 50/ 4/ 5 1006.8F  
NORTHPORT PIER 0730 51 360/ 13/ 18 1010.8F  
N MID LAKE BUOY 0750 54 62 40/ 16/ 21 1009.8F 2/ 4  
SISTER BAY LKSHO 0710 51 80/ 9/ 16 N/A  
MENOMINEE LKSHOR 0730 51 60 10/ 18/ 24 1008.4F  

 
 
 
CLICK HERE TO GO TO PREVIOUS BULLETINS.

The Nexlab WI Page Main Text Page